一网星座-0183星 (ONEWEB-0183 )

导读

ONEWEB-0183是英国OneWeb低轨卫星通信星座中的一员,于2021年4月25日发射升空,该卫星由OneWeb与空客合资公司建造,重量约147.5公斤,设计使用寿命5年,配备Ku/Ka波段天线,单星通信能力约7.5Gbps,可提供高速网络服务,用于弥补地面网络覆盖盲区,服务全球互联互通,当前已在近地轨道服役,为全球范围提供卫星互联网接入服务。

基本信息
目录编号:
48219
目录名称:
ONEWEB-0183
国际标识:
2021-031K
轨道中心:
EARTH
卫星名称:
一网星座-0183星
卫星全名:
一网星座-0183星 (ONEWEB-0183 )
卫星状态:
在轨 (已飞行1876 天)
发射日期:
2021-04-25 UTC
国别 :
英国 (GB)
星等 :
--
轨道信息
数据来源 国际轨道数据 AOE轨道数据
星历时间 2026-06-14T04:13:12+0800
14小时前
查看轨道信息
2026-06-13T07:00:00+0800
1天前
查看轨道信息
半长轴 7583.928km 7583.912km
偏心率 0.0002089 0.0002143
轨道倾角 87.896° 87.897°
近地点辐角 97.399° 96.979°
升交点赤经 290.372° 290.548°
平近点角 262.738° 41.508°
近地点 1204.206km 1204.149km
远地点 1207.376km 1207.401km
周期 109.547分钟 109.547分钟
每日圈数 13.145027 13.145069
详细信息
平衡模式:
三轴稳定
覆盖范围:
全球
运营商:
一网卫星公司
运营商所在国:
英国
制造商(研发单位):
一网卫星公司
制造商所在国:
英国
使用方式:
暂无
卫星简介
OneWeb卫星网络由648颗重约125公斤的微型卫星组成,运行在1200公里的轨道上。 每颗卫星都能够提供至少每秒8千兆位的吞吐量,以使用其高吞吐量的Ku频段有效载荷为家庭和移动平台提供互联网接入。该卫星仍在工作。
2D轨道图
3D轨道图
轨道高度分析图
轨道倾角分析图
轨道综合分析图
查看轨道综合分析图